Find Starlink 36945

NORAD ID: 68050 Int'l Des: 2026-041 Owner: SPXS Country: US Constellation: starlink operational
LEOCIRCULAR

リアルタイム位置

3D地球を読み込み中...

Starlink 36945について

説明を読み込み中...

次回通過

Passes for default location (London). Set your location on the main map for personalized predictions.

高度履歴

Loading altitude history...

軌道要素

1 68050U 26041L 26106.91668981 -.01873529 00000-0 -44017-1 0 9999
2 68050 53.1608 232.2508 0000961 71.4541 221.9270 15.44668682 5989
Epoch: Apr 16, 2026 • Age: 10 hours

現在のステータス

高度 439.6 km
速度 7.65 km/s
衛星直下点 37.36°N, 57.82°W
打ち上げ日 Mar 2, 2026
運用期間 0.1 years
タイプ internet

技術仕様

分類 Payload
質量 575.00 kg
乾燥質量 530.00 kg
総質量 575.00 kg
長さ 0.30 m
直径 4.10 m
スパン 29.00 m
形状 Box + pan
製造者 SPXS
バスタイプ Starlink V2MO
フェーズステータス In Orbit
所有者/国 SPXS/US

Most Searched